Zurück zum Katalog

STARLINK-32842

AktivKommunikationVLEO
NORAD 62822·PAYLOAD·🇺🇸 United States

Gestartet Jan 24, 2025 von Vandenberg Space Force Base

Loading…

Nächste Überflüge (nächste 24 Stunden)

TLE

AktuellSource: CelesTrak SupGP

Epoche: Sep 15, 2026, 02:47 UTC

1 62822C 25018S   26258.11645833 -.00062287  00000+0 -18417-2 0  2587
2 62822  53.1568 146.5505 0001336  86.8134 334.3965 15.34397361    15

Verfolge STARLINK-32842 in Echtzeit mit AllMySat

Download on the App Store